Location: Kra?nica
(53.4833°N, 14.6167°E)
Time: 20:32:44
(UTC+00:00)

SJ 16-02 - Pass Details

Date: 23 May 2024
Orbit: 594 x 606 km, 75.0° (Epoch: 21 June)

Event Time Altitude Azimuth Distance (km) Brightness Sun altitude
Exits shadow 01:40:36 - 194° (SSW) 2,076 3.5 -8.0°
Reaches altitude 10° 01:40:58 10° 194° (SSW) 1,928 3.3 -8.0°
Maximum altitude 01:45:15 70° 111° (ESE) 636 1.5 -7.6°
Drops below altitude 10° 01:49:33 10° 28° (NNE) 1,942 5.5 -7.2°
Sets 01:51:47 0° 26° (NNE) 2,849 6.7 -7.0°
